Cortez, CO

8:33 PM MDT on April 28, 2017 (GMT -0600)
Cortez Municipal

Weather History for KCEZ - August, 2013

Change the Weather History Date:

Monday, August 26, 2013

  Actual Average Record
Temperature  
Mean Temperature 70 °F 67 °F  
Max Temperature 81 °F 84 °F 93 °F (2007)
Min Temperature 59 °F 51 °F 39 °F (2002)
Degree Days  
Heating Degree Days 0 1  
Month to date heating degree days 0 2  
Since 1 June heating degree days 12 80  
Since 1 July heating degree days 0 5  
Cooling Degree Days 5 3  
Month to date cooling degree days 144 134  
Year to date cooling degree days 569 398  
Since 1 June cooling degree days 569 393  
Growing Degree Days 19 (Base 50)    
Moisture  
Dew Point 58 °F    
Average Humidity 68    
Maximum Humidity 93    
Minimum Humidity 42    
Precipitation  
Precipitation 0.26 in 0.05 in 0.34 in (2014)
Month to date precipitation 3.22 1.25  
Year to date precipitation 7.49 8.16  
Sea Level Pressure  
Sea Level Pressure 30.15 in    
Wind  
Wind Speed 4 mph (SSE)    
Max Wind Speed 15 mph    
Max Gust Speed 20 mph    
Visibility 9 miles    
Events Rain , Thunderstorm    
T = Trace of Precipitation, MM = Missing Value Source: NWS Daily Summary

Daily Weather History Graph

Daily Weather History Graph

Search for Another Location

Airport or City:

Trip Planner

Search our weather history database for the weather conditions in past years. The results will help you decide how hot, cold, wet, or windy it might be!

Date:

Astronomy

Aug. 26, 2013 Rise Set
Actual Time 6:40 AM MDT 7:51 PM MDT
Civil Twilight 6:13 AM MDT 8:18 PM MDT
Nautical Twilight 5:41 AM MDT 8:50 PM MDT
Astronomical Twilight 5:07 AM MDT 9:23 PM MDT
Moon 11:13 PM MDT (8/26) 12:36 PM MDT (8/26)
Length of Visible Light 14h 05m
Length of Day
13h 11m
Waning Gibbous, 66% of the Moon is Illuminated
Aug 26
Waning Gibbous
Aug 28
Last Quarter
Sep 5
New
Sep 12
First Quarter
Sep 19
Full

Hourly Weather History & Observations

Time (MDT) Temp. Heat Index Dew Point Humidity Pressure Visibility Wind Dir Wind Speed Gust Speed Precip Events Conditions
12:13 AM 57.2 °F - 57.2 °F 100% 30.36 in 1.5 mi SE 4.6 mph - 0.44 in Rain , Thunderstorm Heavy Thunderstorms and Rain
12:15 AM 57.2 °F - 57.2 °F 100% 30.36 in 2.0 mi ESE 4.6 mph - 0.45 in Rain Heavy Rain
12:17 AM 57.2 °F - 57.2 °F 100% 30.36 in 3.0 mi ESE 5.8 mph - 0.45 in Rain Heavy Rain
12:30 AM 59.0 °F - 57.2 °F 94% 30.36 in 5.0 mi East 4.6 mph - 0.48 in Rain Rain
12:53 AM 59.0 °F - 57.9 °F 96% 30.18 in 10.0 mi ENE 6.9 mph - 0.49 in   Overcast
1:53 AM 60.1 °F - 57.0 °F 90% 30.17 in 10.0 mi NE 8.1 mph - N/A   Overcast
2:53 AM 60.1 °F - 57.0 °F 90% 30.15 in 10.0 mi Calm Calm - 0.03 in Rain Light Rain
3:53 AM 60.1 °F - 57.9 °F 93% 30.16 in 9.0 mi Calm Calm - 0.06 in Rain Light Rain
4:53 AM 60.1 °F - 57.9 °F 93% 30.17 in 10.0 mi Calm Calm - 0.05 in Rain Light Rain
5:53 AM 59.0 °F - 57.9 °F 96% 30.17 in 8.0 mi ENE 4.6 mph - 0.05 in Rain Light Rain
6:53 AM 60.1 °F - 57.9 °F 93% 30.19 in 10.0 mi Calm Calm - 0.04 in Rain Light Rain
7:15 AM 60.8 °F - 57.2 °F 88% 30.38 in 10.0 mi ESE 5.8 mph - 0.01 in Rain Light Rain
7:53 AM 60.1 °F - 57.9 °F 93% 30.19 in 10.0 mi NE 5.8 mph - 0.02 in Rain Light Rain
8:53 AM 64.9 °F - 61.0 °F 87% 30.18 in 10.0 mi ENE 5.8 mph - 0.01 in   Mostly Cloudy
9:53 AM 66.9 °F - 60.1 °F 79% 30.18 in 10.0 mi Calm Calm - N/A   Scattered Clouds
10:53 AM 70.0 °F - 60.1 °F 71% 30.16 in 10.0 mi Calm Calm - N/A   Scattered Clouds
11:53 AM 73.0 °F - 60.1 °F 64% 30.14 in 10.0 mi Calm Calm - N/A   Partly Cloudy
12:53 PM 77.0 °F - 59.0 °F 54% 30.10 in 10.0 mi SW 3.5 mph - N/A   Scattered Clouds
1:53 PM 77.0 °F - 61.0 °F 58% 30.09 in 10.0 mi SW 9.2 mph - N/A   Clear
2:53 PM 77.0 °F - 57.0 °F 50% 30.07 in 10.0 mi SW 8.1 mph - N/A   Mostly Cloudy
3:53 PM 81.0 °F 81.1 °F 57.9 °F 45% 30.03 in 10.0 mi SSW 13.8 mph 19.6 mph N/A   Overcast
4:53 PM 81.0 °F 80.8 °F 55.9 °F 42% 30.00 in 10.0 mi SW 5.8 mph - N/A   Clear
5:53 PM 81.0 °F 81.0 °F 57.0 °F 44% 30.00 in 10.0 mi WSW 5.8 mph - N/A   Clear
6:53 PM 79.0 °F - 57.9 °F 48% 29.99 in 10.0 mi WNW 8.1 mph - N/A   Clear
7:53 PM 73.0 °F - 59.0 °F 61% 30.01 in 10.0 mi Calm Calm - N/A   Clear
8:53 PM 69.1 °F - 60.1 °F 73% 30.04 in 10.0 mi SSW 3.5 mph - N/A   Mostly Cloudy
9:53 PM 68.0 °F - 61.0 °F 78% 30.04 in 10.0 mi ESE 3.5 mph - N/A   Mostly Cloudy
10:53 PM 66.0 °F - 61.0 °F 84% 30.05 in 10.0 mi South 4.6 mph - 0.00 in   Mostly Cloudy
11:53 PM 64.0 °F - 60.1 °F 87% 30.05 in 10.0 mi Calm Calm - N/A   Clear